THY1PN LTFM-EDDB

Flight info

Callsign THY1PN
Flight time N/A
Altitude 36000
Route IBLAX P727 BGS L622 GONGO DCT KOMAN DCT MEGIK DCT ABULI DCT BABKO DCT DIMEX DCT GOVEN T205 NUKRO NUKRO1R
Aircraft A321/M-SDE1E2E3FGHIJ1RWY/LB1

Departure

Time 2026-02-18 08:46
Airport İstanbul Airport (LTFM)

Arrival

Time N/A
Airport Berlin Brandenburg Airport (EDDB)
Time Latitude Longitude Altitude Speed Heading
2026-02-18 07:54 41.26340 28.74517 335 ft 0 kts 178°
2026-02-18 08:23 41.26352 28.74517 335 ft 2 kts 180°
2026-02-18 08:23 41.26367 28.74517 335 ft 2 kts 177°
2026-02-18 08:24 41.26382 28.74516 335 ft 2 kts 185°
2026-02-18 08:24 41.26396 28.74523 335 ft 2 kts 216°
2026-02-18 08:24 41.26407 28.74537 335 ft 2 kts 242°
2026-02-18 08:24 41.26409 28.74547 335 ft 1 kts 256°
2026-02-18 08:25 41.26411 28.74554 335 ft 0 kts 257°
2026-02-18 08:26 41.26410 28.74550 335 ft 1 kts 257°
2026-02-18 08:27 41.26407 28.74512 335 ft 6 kts 276°
2026-02-18 08:27 41.26451 28.74469 335 ft 10 kts 358°
2026-02-18 08:27 41.26522 28.74470 335 ft 9 kts
2026-02-18 08:27 41.26589 28.74468 335 ft 9 kts 359°
2026-02-18 08:28 41.26653 28.74467 335 ft 9 kts 359°
2026-02-18 08:28 41.26715 28.74466 335 ft 8 kts 359°
2026-02-18 08:28 41.26772 28.74465 335 ft 8 kts 359°
2026-02-18 08:28 41.26827 28.74464 335 ft 7 kts 359°
2026-02-18 08:29 41.26881 28.74463 335 ft 8 kts 360°
2026-02-18 08:29 41.27018 28.74460 335 ft 11 kts 358°
2026-02-18 08:29 41.27096 28.74460 335 ft 11 kts
2026-02-18 08:30 41.27172 28.74472 335 ft 10 kts
2026-02-18 08:30 41.27237 28.74473 335 ft 3 kts 358°
2026-02-18 08:30 41.27238 28.74473 335 ft 0 kts 358°
2026-02-18 08:38 41.27242 28.74473 335 ft 2 kts 358°
2026-02-18 08:38 41.27291 28.74462 335 ft 10 kts 326°
2026-02-18 08:39 41.27309 28.74365 335 ft 13 kts 269°
2026-02-18 08:39 41.27307 28.74212 335 ft 18 kts 270°
2026-02-18 08:39 41.27305 28.74044 335 ft 18 kts 270°
2026-02-18 08:39 41.27303 28.73879 335 ft 17 kts 269°
2026-02-18 08:40 41.27302 28.73719 335 ft 17 kts 270°
2026-02-18 08:40 41.27300 28.73557 335 ft 19 kts 269°
2026-02-18 08:40 41.27298 28.73372 335 ft 19 kts 269°
2026-02-18 08:40 41.27296 28.73193 335 ft 18 kts 269°
2026-02-18 08:41 41.27267 28.73099 335 ft 10 kts 196°
2026-02-18 08:41 41.27101 28.73100 335 ft 13 kts 179°
2026-02-18 08:41 41.27008 28.73102 335 ft 13 kts 179°
2026-02-18 08:42 41.26910 28.73103 335 ft 14 kts 179°
2026-02-18 08:42 41.26808 28.73105 335 ft 14 kts 179°
2026-02-18 08:42 41.26726 28.73101 335 ft 8 kts 209°
2026-02-18 08:42 41.26708 28.73029 335 ft 8 kts 269°
2026-02-18 08:43 41.26707 28.72947 335 ft 9 kts 270°
2026-02-18 08:43 41.26707 28.72860 335 ft 10 kts 269°
2026-02-18 08:43 41.26706 28.72758 335 ft 11 kts 269°
2026-02-18 08:43 41.26704 28.72649 335 ft 12 kts 269°
2026-02-18 08:44 41.26704 28.72547 335 ft 6 kts 276°
2026-02-18 08:44 41.26735 28.72516 335 ft 6 kts 357°
2026-02-18 08:44 41.26751 28.72515 335 ft 0 kts 359°
2026-02-18 08:45 41.26798 28.72514 335 ft 30 kts 359°
2026-02-18 08:45 41.28117 28.72491 348 ft 149 kts 359°
2026-02-18 08:45 41.29172 28.72498 859 ft 154 kts 355°
2026-02-18 08:46 41.30231 28.72496 1468 ft 157 kts 355°
2026-02-18 08:46 41.31325 28.72514 1849 ft 161 kts 352°
2026-02-18 08:46 41.32496 28.72492 2116 ft 174 kts 353°
2026-02-18 08:46 41.33747 28.72496 2396 ft 187 kts 354°
2026-02-18 08:47 41.35098 28.72506 2686 ft 200 kts 354°
2026-02-18 08:47 41.36563 28.72518 2898 ft 221 kts 355°
2026-02-18 08:47 41.38139 28.72333 3307 ft 230 kts 342°
2026-02-18 08:47 41.39645 28.71644 3846 ft 235 kts 332°
2026-02-18 08:48 41.41141 28.70716 4440 ft 242 kts 330°
2026-02-18 08:48 41.42693 28.69723 5020 ft 251 kts 330°
2026-02-18 08:48 41.44278 28.68700 5678 ft 256 kts 330°
2026-02-18 08:48 41.45873 28.67671 6438 ft 258 kts 331°
2026-02-18 08:49 41.47495 28.66633 7087 ft 264 kts 330°
2026-02-18 08:49 41.50880 28.64469 8417 ft 275 kts 330°
2026-02-18 08:49 41.52618 28.63352 9095 ft 279 kts 331°
2026-02-18 08:50 41.54362 28.62232 9699 ft 284 kts 331°
2026-02-18 08:50 41.56131 28.61068 10263 ft 289 kts 329°
2026-02-18 08:50 41.57853 28.59526 10593 ft 303 kts 319°
2026-02-18 08:50 41.59390 28.57560 10902 ft 317 kts 311°
2026-02-18 08:51 41.60930 28.55308 11200 ft 332 kts 310°
2026-02-18 08:51 41.62484 28.52988 11477 ft 347 kts 310°
2026-02-18 08:51 41.64149 28.50531 11839 ft 359 kts 310°
2026-02-18 08:51 41.65842 28.48090 12386 ft 364 kts 315°
2026-02-18 08:52 41.67854 28.45960 12968 ft 370 kts 326°
2026-02-18 08:52 41.70110 28.44371 13553 ft 374 kts 335°
2026-02-18 08:52 41.72534 28.42988 14136 ft 378 kts 337°
2026-02-18 08:52 41.74962 28.41659 14679 ft 381 kts 337°
2026-02-18 08:53 41.77412 28.40318 15278 ft 383 kts 337°
2026-02-18 08:53 41.82302 28.37604 16546 ft 383 kts 337°
2026-02-18 08:53 41.84788 28.36210 17119 ft 386 kts 337°
2026-02-18 08:54 41.87255 28.34826 17684 ft 388 kts 336°
2026-02-18 08:54 41.89755 28.33422 18207 ft 390 kts 336°
2026-02-18 08:54 41.92260 28.32010 18713 ft 392 kts 336°
2026-02-18 08:54 41.94767 28.30598 19195 ft 395 kts 336°
2026-02-18 08:55 41.97197 28.28878 19667 ft 397 kts 325°
2026-02-18 08:55 41.99280 28.26474 20156 ft 397 kts 311°
2026-02-18 08:55 42.00958 28.23558 20657 ft 398 kts 303°
2026-02-18 08:55 42.02506 28.20484 21134 ft 399 kts 302°
2026-02-18 08:56 42.04052 28.17356 21602 ft 401 kts 303°
2026-02-18 08:56 42.05592 28.14253 22067 ft 402 kts 303°
2026-02-18 08:56 42.07146 28.11140 22520 ft 403 kts 303°
2026-02-18 08:56 42.08704 28.08029 22950 ft 404 kts 303°
2026-02-18 08:57 42.10272 28.04901 23427 ft 404 kts 303°
2026-02-18 08:57 42.13412 27.98634 24208 ft 407 kts 303°
2026-02-18 08:57 42.15010 27.95439 24572 ft 408 kts 303°
2026-02-18 08:58 42.16587 27.92289 24814 ft 414 kts 303°
2026-02-18 08:58 42.18220 27.89023 24974 ft 419 kts 303°
2026-02-18 08:58 42.19822 27.85799 25363 ft 419 kts 304°
2026-02-18 08:58 42.21593 27.82649 25708 ft 420 kts 312°
2026-02-18 08:59 42.23689 27.79964 25983 ft 423 kts 321°
2026-02-18 08:59 42.26124 27.77721 26231 ft 426 kts 329°
2026-02-18 08:59 42.28726 27.75769 26571 ft 427 kts 332°
2026-02-18 08:59 42.31310 27.73893 26929 ft 427 kts 333°
2026-02-18 09:00 42.33936 27.71989 27219 ft 429 kts 333°
2026-02-18 09:00 42.36602 27.70071 27488 ft 432 kts 334°
2026-02-18 09:00 42.39217 27.68171 27741 ft 434 kts 333°
2026-02-18 09:00 42.41900 27.66201 28000 ft 437 kts 334°
2026-02-18 09:01 42.44552 27.64254 28170 ft 440 kts 334°
2026-02-18 09:01 42.49965 27.60287 28806 ft 441 kts 334°
2026-02-18 09:01 42.52608 27.58340 29220 ft 438 kts 334°
2026-02-18 09:02 42.55304 27.56348 29614 ft 436 kts 334°
2026-02-18 09:02 42.57926 27.54318 29964 ft 437 kts 332°
2026-02-18 09:02 42.60463 27.52100 30255 ft 439 kts 329°
2026-02-18 09:02 42.62968 27.49698 30490 ft 442 kts 328°
2026-02-18 09:03 42.65473 27.47242 30646 ft 447 kts 328°
2026-02-18 09:03 42.67980 27.44773 30774 ft 449 kts 327°
2026-02-18 09:03 42.70517 27.42275 31152 ft 447 kts 327°
2026-02-18 09:03 42.72990 27.39834 31488 ft 444 kts 327°
2026-02-18 09:04 42.75483 27.37378 31669 ft 443 kts 327°
2026-02-18 09:04 42.77979 27.34913 31910 ft 443 kts 326°
2026-02-18 09:04 42.80486 27.32438 32057 ft 446 kts 326°
2026-02-18 09:04 42.82984 27.29971 32258 ft 445 kts 326°
2026-02-18 09:05 42.85493 27.27487 32527 ft 445 kts 326°
2026-02-18 09:05 42.90485 27.22543 32810 ft 443 kts 324°
2026-02-18 09:05 42.92950 27.20097 33125 ft 439 kts 324°
2026-02-18 09:06 42.95422 27.17642 33370 ft 438 kts 324°
2026-02-18 09:06 42.97866 27.15207 33557 ft 437 kts 324°
2026-02-18 09:06 43.00311 27.12770 33766 ft 437 kts 323°
2026-02-18 09:07 43.05200 27.07889 34046 ft 437 kts 323°
2026-02-18 09:07 43.07637 27.05457 34216 ft 438 kts 323°
2026-02-18 09:07 43.10113 27.03023 34265 ft 438 kts 325°
2026-02-18 09:07 43.12634 27.00702 34564 ft 438 kts 325°
2026-02-18 09:08 43.15193 26.98387 34687 ft 438 kts 326°
2026-02-18 09:08 43.17733 26.96093 34883 ft 440 kts 325°
2026-02-18 09:08 43.20269 26.93798 34907 ft 441 kts 325°
2026-02-18 09:08 43.22818 26.91482 35105 ft 441 kts 325°
2026-02-18 09:09 43.25386 26.89148 35228 ft 441 kts 325°
2026-02-18 09:09 43.30481 26.84504 35561 ft 442 kts 325°
2026-02-18 09:09 43.33040 26.82168 35664 ft 443 kts 325°
2026-02-18 09:10 43.38160 26.77484 35645 ft 442 kts 325°
2026-02-18 09:10 43.43262 26.72810 35658 ft 442 kts 324°
2026-02-18 09:11 43.48356 26.68130 35645 ft 443 kts 324°
2026-02-18 09:11 43.53451 26.63437 35680 ft 442 kts 325°
2026-02-18 09:12 43.58574 26.58716 35737 ft 443 kts 324°
2026-02-18 09:12 43.63685 26.53990 35695 ft 443 kts 324°
2026-02-18 09:13 43.71334 26.46902 35665 ft 443 kts 325°
2026-02-18 09:14 43.76427 26.42169 35717 ft 442 kts 325°
2026-02-18 09:14 43.81527 26.37422 35709 ft 441 kts 324°
2026-02-18 09:15 43.86607 26.32681 35722 ft 444 kts 324°
2026-02-18 09:15 43.91729 26.27890 35734 ft 444 kts 324°
2026-02-18 09:16 43.96777 26.23103 35748 ft 441 kts 322°
2026-02-18 09:16 44.01540 26.17743 35779 ft 442 kts 317°
2026-02-18 09:17 44.06083 26.12086 35746 ft 441 kts 316°
2026-02-18 09:17 44.12913 26.03523 35755 ft 441 kts 316°
2026-02-18 09:18 44.17459 25.97814 35758 ft 441 kts 316°
2026-02-18 09:18 44.21994 25.92113 35763 ft 440 kts 316°
2026-02-18 09:19 44.26514 25.86418 35733 ft 439 kts 316°
2026-02-18 09:19 44.31023 25.80729 35793 ft 440 kts 316°
2026-02-18 09:20 44.35550 25.75004 35780 ft 441 kts 316°
2026-02-18 09:20 44.40064 25.69271 35726 ft 440 kts 316°
2026-02-18 09:21 44.46847 25.60650 35731 ft 440 kts 316°
2026-02-18 09:22 44.51354 25.54904 35737 ft 439 kts 316°
2026-02-18 09:22 44.58093 25.46289 35714 ft 439 kts 316°
2026-02-18 09:23 44.62610 25.40498 35735 ft 439 kts 316°
2026-02-18 09:23 44.67100 25.34729 35689 ft 438 kts 315°
2026-02-18 09:24 44.71556 25.28992 35723 ft 437 kts 315°
2026-02-18 09:24 44.76037 25.23209 35694 ft 439 kts 315°
2026-02-18 09:25 44.82773 25.14492 35695 ft 438 kts 315°
2026-02-18 09:26 44.87237 25.08702 35674 ft 438 kts 315°
2026-02-18 09:26 44.91680 25.02922 35684 ft 436 kts 315°
2026-02-18 09:27 44.96117 24.97139 35654 ft 436 kts 315°
2026-02-18 09:27 45.00554 24.91343 35692 ft 436 kts 315°
2026-02-18 09:28 45.05008 24.85515 35683 ft 436 kts 315°
2026-02-18 09:28 45.09428 24.79716 35630 ft 434 kts 315°
2026-02-18 09:29 45.13850 24.73899 35701 ft 434 kts 315°
2026-02-18 09:29 45.20452 24.65198 35733 ft 434 kts 315°
2026-02-18 09:30 45.22669 24.62270 35621 ft 434 kts 315°
2026-02-18 09:30 45.24839 24.59397 35615 ft 433 kts 315°
2026-02-18 09:30 45.29251 24.53551 35696 ft 433 kts 315°
2026-02-18 09:31 45.33638 24.47725 35654 ft 434 kts 315°
2026-02-18 09:31 45.38023 24.41884 35650 ft 433 kts 315°
2026-02-18 09:32 45.42401 24.36044 35687 ft 433 kts 315°
2026-02-18 09:32 45.46801 24.30164 35693 ft 433 kts 314°
2026-02-18 09:33 45.53336 24.21402 35706 ft 432 kts 314°
2026-02-18 09:34 45.57704 24.15531 35733 ft 432 kts 314°
2026-02-18 09:34 45.62044 24.09681 35771 ft 432 kts 314°
2026-02-18 09:35 45.66398 24.03801 35804 ft 432 kts 314°
2026-02-18 09:35 45.70760 23.97897 35812 ft 432 kts 314°
2026-02-18 09:36 45.75087 23.92024 35807 ft 431 kts 314°
2026-02-18 09:36 45.79420 23.86135 35835 ft 431 kts 314°
2026-02-18 09:37 45.83779 23.80196 35796 ft 431 kts 314°
2026-02-18 09:37 45.90270 23.71325 35801 ft 431 kts 314°
2026-02-18 09:38 45.94587 23.65406 35794 ft 430 kts 314°
2026-02-18 09:38 45.98894 23.59492 35831 ft 430 kts 314°
2026-02-18 09:39 46.03224 23.53530 35840 ft 430 kts 314°
2026-02-18 09:39 46.07505 23.47622 35854 ft 430 kts 314°
2026-02-18 09:40 46.11807 23.41673 35833 ft 430 kts 314°
2026-02-18 09:40 46.16118 23.35697 35811 ft 430 kts 314°
2026-02-18 09:41 46.22566 23.26732 35756 ft 429 kts 314°
2026-02-18 09:42 46.26814 23.20811 35735 ft 428 kts 314°
2026-02-18 09:42 46.31100 23.14823 35721 ft 428 kts 314°
2026-02-18 09:43 46.35339 23.08888 35718 ft 426 kts 313°
2026-02-18 09:43 46.39610 23.02894 35738 ft 428 kts 314°
2026-02-18 09:44 46.43870 22.96901 35730 ft 428 kts 313°
2026-02-18 09:44 46.48124 22.90899 35728 ft 427 kts 313°
2026-02-18 09:45 46.52349 22.84925 35711 ft 426 kts 314°
2026-02-18 09:45 46.58685 22.75945 35742 ft 425 kts 314°
2026-02-18 09:46 46.62894 22.69964 35726 ft 426 kts 314°
2026-02-18 09:46 46.67120 22.63943 35759 ft 425 kts 314°
2026-02-18 09:47 46.71310 22.57960 35785 ft 425 kts 314°
2026-02-18 09:47 46.75518 22.51935 35806 ft 424 kts 314°
2026-02-18 09:48 46.79704 22.45928 35827 ft 423 kts 314°
2026-02-18 09:48 46.83880 22.39922 35871 ft 423 kts 314°
2026-02-18 09:49 46.90149 22.30880 35866 ft 424 kts 313°
2026-02-18 09:50 46.94329 22.24832 35891 ft 423 kts 313°
2026-02-18 09:50 46.98493 22.18795 35915 ft 423 kts 313°
2026-02-18 09:51 47.02659 22.12739 35905 ft 420 kts 313°
2026-02-18 09:51 47.06785 22.06732 35924 ft 422 kts 313°
2026-02-18 09:52 47.10922 22.00687 35943 ft 420 kts 313°
2026-02-18 09:52 47.15051 21.94639 35915 ft 419 kts 313°
2026-02-18 09:53 47.19197 21.88660 35921 ft 422 kts 315°
2026-02-18 09:53 47.26079 21.80649 35935 ft 421 kts 322°
2026-02-18 09:54 47.30838 21.75666 35894 ft 421 kts 322°
2026-02-18 09:54 47.35582 21.70690 35922 ft 421 kts 322°
2026-02-18 09:55 47.40360 21.65665 35908 ft 422 kts 322°
2026-02-18 09:55 47.45092 21.60673 35913 ft 420 kts 322°
2026-02-18 09:56 47.49824 21.55668 35893 ft 420 kts 322°
2026-02-18 09:56 47.54563 21.50643 35928 ft 419 kts 322°
2026-02-18 09:57 47.61654 21.43104 35909 ft 420 kts 322°
2026-02-18 09:58 47.66358 21.38088 35892 ft 419 kts 322°
2026-02-18 09:58 47.71067 21.33056 35899 ft 418 kts 321°
2026-02-18 09:59 47.75780 21.28010 35887 ft 418 kts 321°
2026-02-18 09:59 47.80478 21.22967 35882 ft 418 kts 321°
2026-02-18 10:00 47.85173 21.17913 35911 ft 417 kts 321°
2026-02-18 10:00 47.89847 21.12874 35903 ft 418 kts 321°
2026-02-18 10:01 47.94521 21.07822 35909 ft 416 kts 322°
2026-02-18 10:01 48.01542 21.00210 35906 ft 417 kts 322°
2026-02-18 10:02 48.06227 20.95117 35896 ft 416 kts 322°
2026-02-18 10:02 48.10894 20.90034 35895 ft 416 kts 321°
2026-02-18 10:03 48.15556 20.84941 35894 ft 417 kts 321°
2026-02-18 10:03 48.20217 20.79837 35887 ft 415 kts 322°
2026-02-18 10:04 48.24850 20.74754 35897 ft 415 kts 321°
2026-02-18 10:04 48.29520 20.69618 35890 ft 417 kts 321°
2026-02-18 10:05 48.36518 20.61898 35858 ft 417 kts 321°
2026-02-18 10:06 48.41171 20.56746 35868 ft 416 kts 321°
2026-02-18 10:06 48.45795 20.51615 35874 ft 415 kts 321°
2026-02-18 10:07 48.50583 20.46816 35831 ft 418 kts 327°
2026-02-18 10:07 48.55577 20.42394 35853 ft 416 kts 327°
2026-02-18 10:08 48.60586 20.37984 35847 ft 417 kts 327°
2026-02-18 10:08 48.65567 20.33585 35856 ft 416 kts 327°
2026-02-18 10:09 48.70560 20.29161 35824 ft 417 kts 327°
2026-02-18 10:09 48.78064 20.22489 35792 ft 419 kts 327°
2026-02-18 10:10 48.83094 20.18002 35811 ft 418 kts 327°
2026-02-18 10:10 48.88082 20.13544 35821 ft 417 kts 327°
2026-02-18 10:11 48.93053 20.09091 35820 ft 419 kts 326°
2026-02-18 10:11 48.98073 20.04582 35823 ft 419 kts 326°
2026-02-18 10:12 49.03051 20.00102 35822 ft 418 kts 327°
2026-02-18 10:12 49.08041 19.95600 35808 ft 419 kts 326°
2026-02-18 10:13 49.15583 19.88774 35790 ft 417 kts 326°
2026-02-18 10:14 49.20546 19.84267 35738 ft 417 kts 327°
2026-02-18 10:14 49.25504 19.79757 35794 ft 417 kts 326°
2026-02-18 10:15 49.30458 19.75239 35723 ft 417 kts 327°
2026-02-18 10:15 49.35469 19.70657 35766 ft 418 kts 326°
2026-02-18 10:16 49.40430 19.66109 35787 ft 418 kts 326°
2026-02-18 10:16 49.45381 19.61559 35774 ft 416 kts 327°
2026-02-18 10:17 49.50343 19.56984 35806 ft 417 kts 327°
2026-02-18 10:17 49.57722 19.50035 35829 ft 415 kts 323°
2026-02-18 10:18 49.62293 19.44736 35811 ft 415 kts 318°
2026-02-18 10:18 49.66498 19.38721 35794 ft 414 kts 314°
2026-02-18 10:19 49.70549 19.32428 35831 ft 411 kts 313°
2026-02-18 10:19 49.74575 19.26138 35842 ft 412 kts 313°
2026-02-18 10:20 49.78589 19.19857 35857 ft 413 kts 313°
2026-02-18 10:20 49.82574 19.13608 35822 ft 411 kts 313°
2026-02-18 10:21 49.88579 19.04162 35849 ft 411 kts 313°
2026-02-18 10:22 49.92580 18.97850 35811 ft 410 kts 313°
2026-02-18 10:22 49.96546 18.91578 35833 ft 410 kts 313°
2026-02-18 10:23 50.00534 18.85250 35850 ft 410 kts 313°
2026-02-18 10:23 50.04522 18.78914 35878 ft 411 kts 313°
2026-02-18 10:24 50.08499 18.72571 35882 ft 409 kts 313°
2026-02-18 10:24 50.12476 18.66218 35889 ft 410 kts 313°
2026-02-18 10:25 50.16407 18.59918 35869 ft 407 kts 313°
2026-02-18 10:25 50.22325 18.50413 35899 ft 408 kts 313°
2026-02-18 10:26 50.26251 18.44083 35881 ft 407 kts 313°
2026-02-18 10:26 50.27553 18.41981 35868 ft 407 kts 313°